| time (UTC) | temp C | wind direction | speed KPH | gust KPH | rain 1hr cm | rain 24hr cm | rain mn cm | humidity % | barometer mb |
| 20260506003005 | 21 | 226 | 0.0 | 0.0 | 0.00 | 0.00 | 0.00 | 55 | 1004.6 |
| 20260506001505 | 21 | 226 | 0.0 | 1.6 | 0.00 | 0.00 | 0.00 | 55 | 1004.3 |
| 20260506000007 | 22 | 226 | 0.0 | 1.6 | 0.00 | 0.00 | 0.00 | 54 | 1004.3 |
| 20260505234504 | 22 | 226 | 0.0 | 1.6 | 0.00 | 0.00 | 0.00 | 52 | 1004.2 |
| 20260505233003 | 22 | 226 | 0.0 | 1.6 | 0.00 | 0.00 | 0.00 | 50 | 1004.2 |
| 20260505231503 | 23 | 226 | 0.0 | 1.6 | 0.00 | 0.00 | 0.00 | 49 | 1004.1 |
| 20260505230002 | 23 | 226 | 0.0 | 3.2 | 0.00 | 0.00 | 0.00 | 46 | 1003.9 |
| 20260505224501 | 24 | 226 | 1.6 | 11.3 | 0.00 | 0.00 | 0.00 | 44 | 1003.8 |
| 20260505223001 | 25 | 248 | 3.2 | 8.0 | 0.00 | 0.00 | 0.00 | 41 | 1003.6 |
| 20260505221602 | 25 | 238 | 3.2 | 17.7 | 0.00 | 0.00 | 0.00 | 38 | 1003.6 |
| 20260505220100 | 25 | 237 | 1.6 | 14.5 | 0.00 | 0.00 | 0.00 | 39 | 1003.5 |
| 20260505214621 | 25 | 205 | 3.2 | 9.7 | 0.00 | 0.00 | 0.00 | 37 | 1003.3 |
| 20260505213104 | 25 | 209 | 3.2 | 8.0 | 0.00 | 0.00 | 0.00 | 36 | 1003.1 |
| 20260505211607 | 26 | 254 | 4.8 | 12.9 | 0.00 | 0.00 | 0.00 | 35 | 1002.9 |
| 20260505210057 | 26 | 221 | 4.8 | 11.3 | 0.00 | 0.00 | 0.00 | 35 | 1003.0 |
| 20260505204557 | 26 | 244 | 4.8 | 22.5 | 0.00 | 0.00 | 0.00 | 35 | 1003.2 |
| 20260505203057 | 26 | 232 | 8.0 | 17.7 | 0.00 | 0.00 | 0.00 | 35 | 1003.0 |
| 20260505201558 | 26 | 244 | 8.0 | 24.1 | 0.00 | 0.00 | 0.00 | 36 | 1003.0 |
| 20260505200105 | 25 | 203 | 9.7 | 24.1 | 0.00 | 0.00 | 0.00 | 35 | 1003.0 |
| 20260505194556 | 25 | 234 | 11.3 | 29.0 | 0.00 | 0.00 | 0.00 | 36 | 1003.0 |
| 20260505193053 | 26 | 211 | 11.3 | 27.4 | 0.00 | 0.00 | 0.00 | 38 | 1003.3 |
| 20260505191552 | 27 | 217 | 6.4 | 19.3 | 0.00 | 0.00 | 0.00 | 41 | 1003.3 |
| 20260505190052 | 26 | 250 | 6.4 | 24.1 | 0.00 | 0.00 | 0.00 | 42 | 1003.5 |
| 20260505184547 | 27 | 223 | 8.0 | 16.1 | 0.00 | 0.00 | 0.00 | 45 | 1003.8 |
| 20260505183054 | 26 | 162 | 8.0 | 17.7 | 0.00 | 0.00 | 0.00 | 46 | 1004.0 |
| 20260505181543 | 26 | 217 | 6.4 | 24.1 | 0.00 | 0.00 | 0.00 | 43 | 1004.3 |
| 20260505180046 | 26 | 190 | 9.7 | 22.5 | 0.00 | 0.00 | 0.00 | 45 | 1004.7 |
| 20260505174550 | 25 | 94 | 6.4 | 17.7 | 0.00 | 0.00 | 0.00 | 48 | 1004.7 |
| 20260505173040 | 25 | 223 | 8.0 | 19.3 | 0.00 | 0.00 | 0.00 | 45 | 1004.9 |
| 20260505171545 | 26 | 202 | 8.0 | 16.1 | 0.00 | 0.00 | 0.00 | 47 | 1004.7 |
| 20260505170035 | 26 | 194 | 6.4 | 16.1 | 0.00 | 0.00 | 0.00 | 48 | 1004.8 |
| 20260505164535 | 24 | 200 | 4.8 | 11.3 | 0.00 | 0.00 | 0.00 | 50 | 1005.1 |
| 20260505163033 | 24 | 226 | 4.8 | 11.3 | 0.00 | 0.00 | 0.00 | 48 | 1005.4 |
| 20260505161531 | 24 | 232 | 3.2 | 11.3 | 0.00 | 0.00 | 0.00 | 49 | 1005.6 |
| 20260505153026 | 23 | 205 | 6.4 | 14.5 | 0.00 | 0.00 | 0.00 | 53 | 1006.0 |
| 20260505151522 | 23 | 193 | 4.8 | 16.1 | 0.00 | 0.00 | 0.00 | 54 | 1006.2 |
| 20260505124550 | 17 | 210 | 4.8 | 12.9 | 0.00 | 0.00 | 0.00 | 66 | 1006.9 |
| 20260505123053 | 17 | 217 | 3.2 | 11.3 | 0.00 | 0.00 | 0.00 | 67 | 1007.0 |
| 20260505121547 | 17 | 205 | 3.2 | 6.4 | 0.00 | 0.00 | 0.00 | 68 | 1007.1 |
| 20260505120050 | 16 | 182 | 1.6 | 11.3 | 0.00 | 0.00 | 0.00 | 68 | 1006.8 |
| 20260505114551 | 16 | 200 | 4.8 | 9.7 | 0.00 | 0.00 | 0.00 | 69 | 1006.7 |
| 20260505113043 | 16 | 229 | 6.4 | 12.9 | 0.00 | 0.00 | 0.00 | 69 | 1006.9 |
| 20260505111541 | 16 | 221 | 6.4 | 12.9 | 0.00 | 0.00 | 0.00 | 69 | 1006.7 |
| 20260505101546 | 15 | 231 | 8.0 | 17.7 | 0.00 | 0.00 | 0.00 | 68 | 1006.3 |
| 20260505100037 | 16 | 203 | 6.4 | 12.9 | 0.00 | 0.00 | 0.00 | 68 | 1006.1 |
| 20260505094538 | 16 | 231 | 4.8 | 12.9 | 0.00 | 0.00 | 0.00 | 68 | 1005.9 |
| 20260505093032 | 15 | 260 | 3.2 | 11.3 | 0.00 | 0.00 | 0.00 | 71 | 1005.9 |
| 20260505091534 | 15 | 242 | 3.2 | 8.0 | 0.00 | 0.00 | 0.00 | 71 | 1005.8 |
| 20260505090028 | 15 | 236 | 1.6 | 8.0 | 0.00 | 0.00 | 0.00 | 70 | 1005.8 |
| 20260505084527 | 15 | 202 | 0.0 | 8.0 | 0.00 | 0.00 | 0.00 | 70 | 1005.9 |
| 20260505083025 | 16 | 194 | 0.0 | 8.0 | 0.00 | 0.00 | 0.00 | 69 | 1005.8 |
| 20260505081525 | 16 | 209 | 3.2 | 14.5 | 0.00 | 0.00 | 0.00 | 68 | 1005.7 |
| 20260505080021 | 16 | 172 | 6.4 | 12.9 | 0.00 | 0.00 | 0.00 | 67 | 1005.7 |
| 20260505074520 | 16 | 227 | 6.4 | 16.1 | 0.00 | 0.00 | 0.00 | 65 | 1005.6 |
| 20260505073020 | 16 | 182 | 4.8 | 16.1 | 0.00 | 0.00 | 0.00 | 65 | 1005.5 |
| 20260505071529 | 16 | 198 | 3.2 | 12.9 | 0.00 | 0.00 | 0.00 | 64 | 1005.3 |
| 20260505070015 | 16 | 201 | 3.2 | 12.9 | 0.00 | 0.00 | 0.00 | 63 | 1005.4 |
| 20260505064513 | 17 | 216 | 4.8 | 8.0 | 0.00 | 0.00 | 0.00 | 62 | 1005.5 |
| 20260505063012 | 17 | 205 | 3.2 | 8.0 | 0.00 | 0.00 | 0.00 | 60 | 1005.7 |
| 20260505061517 | 17 | 204 | 4.8 | 11.3 | 0.00 | 0.00 | 0.00 | 59 | 1005.7 |
| 20260505060033 | 17 | 212 | 6.4 | 14.5 | 0.00 | 0.00 | 0.00 | 58 | 1005.7 |
| 20260505054512 | 17 | 180 | 6.4 | 12.9 | 0.00 | 0.00 | 0.00 | 58 | 1005.9 |
| 20260505053009 | 17 | 222 | 4.8 | 12.9 | 0.00 | 0.00 | 0.00 | 58 | 1005.9 |
| 20260505051517 | 17 | 256 | 8.0 | 20.9 | 0.00 | 0.00 | 0.00 | 55 | 1006.0 |
| 20260505041604 | 16 | 193 | 3.2 | 4.8 | 0.00 | 0.00 | 0.00 | 58 | 1005.7 |
| 20260505040057 | 17 | 205 | 0.0 | 11.3 | 0.00 | 0.00 | 0.00 | 57 | 1005.6 |
| 20260505034557 | 17 | 202 | 1.6 | 8.0 | 0.00 | 0.00 | 0.00 | 56 | 1005.5 |
| 20260505033057 | 17 | 193 | 0.0 | 4.8 | 0.00 | 0.00 | 0.00 | 55 | 1005.3 |
| 20260505031558 | 17 | 198 | 0.0 | 8.0 | 0.00 | 0.00 | 0.00 | 53 | 1005.3 |
| 20260505030155 | 18 | 207 | 1.6 | 8.0 | 0.00 | 0.00 | 0.00 | 53 | 1005.4 |
| 20260505024604 | 18 | 179 | 3.2 | 9.7 | 0.00 | 0.00 | 0.00 | 53 | 1005.4 |
| 20260505023056 | 18 | 176 | 3.2 | 11.3 | 0.00 | 0.00 | 0.00 | 51 | 1005.5 |
| 20260505021554 | 18 | 215 | 3.2 | 14.5 | 0.00 | 0.00 | 0.00 | 50 | 1005.7 |
| 20260505020053 | 18 | 201 | 3.2 | 6.4 | 0.00 | 0.00 | 0.00 | 51 | 1005.7 |
| 20260505014553 | 18 | 80 | 3.2 | 11.3 | 0.00 | 0.00 | 0.00 | 50 | 1005.6 |
| 20260505013107 | 19 | 211 | 3.2 | 12.9 | 0.00 | 0.00 | 0.00 | 49 | 1005.6 |
| 20260505011558 | 19 | 194 | 4.8 | 16.1 | 0.00 | 0.00 | 0.00 | 49 | 1005.4 |
| 20260505004552 | 19 | 208 | 4.8 | 12.9 | 0.00 | 0.00 | 0.00 | 50 | 1005.2 |